KE5OYL Weather Reports


Display with metric or nautical units.
time (UTC)temp
F
wind
direction
speed
MPH
gust
MPH
rain 1hr
in
rain 24hr
in
rain mn
in
humidity
%
barometer
mb
20260906191123 97 19 0.0 5.0 0.00 0.00 0.00 44 1013.4
20260906190623 98 129 8.0 9.0 0.00 0.00 0.00 45 1013.3
20260906190118 97 78 2.0 7.0 0.00 0.00 0.00 44 1013.6
20260906185616 96 104 7.0 9.0 0.00 0.00 0.00 44 1013.4
20260906185116 97 108 6.0 10.0 0.00 0.00 0.00 45 1013.7
20260906184610 96 50 4.0 8.0 0.00 0.00 0.00 47 1013.8
20260906184106 96 245 5.0 9.0 0.00 0.00 0.00 48 1013.6
20260906183602 96 45 2.0 5.0 0.00 0.00 0.00 47 1013.7
20260906183058 95 155 5.0 13.0 0.00 0.00 0.00 48 1013.8
20260906182552 95 20 2.0 7.0 0.00 0.00 0.00 49 1013.9
20260906182049 95 351 1.0 6.0 0.00 0.00 0.00 47 1014.2
20260906181544 95 134 3.0 9.0 0.00 0.00 0.00 49 1014.0
20260906181040 96 21 4.0 8.0 0.00 0.00 0.00 47 1014.1
20260906180534 95 97 4.0 6.0 0.00 0.00 0.00 48 1014.1
20260906180033 96 85 5.0 11.0 0.00 0.00 0.00 48 1014.1
20260906175532 94 131 5.0 9.0 0.00 0.00 0.00 50 1014.1
20260906175033 94 134 6.0 9.0 0.00 0.00 0.00 50 1014.4
20260906174531 95 27 3.0 5.0 0.00 0.00 0.00 51 1014.3
20260906174026 94 273 3.0 3.0 0.00 0.00 0.00 50 1014.5
20260906173521 94 22 0.0 1.0 0.00 0.00 0.00 50 1014.5
20260906173017 93 347 1.0 6.0 0.00 0.00 0.00 52 1014.7
20260906172511 94 123 5.0 8.0 0.00 0.00 0.00 52 1014.5
20260906172007 94 77 3.0 8.0 0.00 0.00 0.00 53 1014.8
20260906171501 94 9 1.0 5.0 0.00 0.00 0.00 52 1014.9
20260906170956 93 188 3.0 7.0 0.00 0.00 0.00 55 1015.0
20260906170453 94 80 3.0 8.0 0.00 0.00 0.00 53 1015.0
20260906165949 92 0 0.0 2.0 0.00 0.00 0.00 55 1015.0
20260906165448 93 162 4.0 6.0 0.00 0.00 0.00 55 1015.1
20260906164944 92 356 1.0 3.0 0.00 0.00 0.00 55 1015.5
20260906164442 93 55 1.0 7.0 0.00 0.00 0.00 56 1015.3
20260906163939 93 230 3.0 7.0 0.00 0.00 0.00 55 1015.2
20260906163434 93 122 5.0 8.0 0.00 0.00 0.00 54 1015.1
20260906162933 92 29 3.0 7.0 0.00 0.00 0.00 57 1015.2
20260906162431 91 139 3.0 5.0 0.00 0.00 0.00 58 1015.2
20260906161926 91 77 3.0 8.0 0.00 0.00 0.00 59 1015.2
20260906161426 90 58 1.0 2.0 0.00 0.00 0.00 61 1015.3
20260906160925 90 98 5.0 7.0 0.00 0.00 0.00 60 1015.3
20260906160418 90 35 3.0 6.0 0.00 0.00 0.00 61 1015.4
20260906155917 91 25 2.0 5.0 0.00 0.00 0.00 61 1015.4
20260906155410 90 79 3.0 5.0 0.00 0.00 0.00 63 1015.3
20260906154907 89 2 2.0 3.0 0.00 0.00 0.00 64 1015.4
20260906154401 91 87 4.0 6.0 0.00 0.00 0.00 63 1015.3
20260906153900 89 47 2.0 3.0 0.00 0.00 0.00 65 1015.3
20260906153359 88 18 0.0 1.0 0.00 0.00 0.00 66 1015.4
20260906152854 88 34 1.0 5.0 0.00 0.00 0.00 68 1015.2
20260906152349 88 30 1.0 2.0 0.00 0.00 0.00 66 1015.3
20260906151848 87 57 2.0 3.0 0.00 0.00 0.00 68 1015.0
20260906151344 88 16 1.0 2.0 0.00 0.00 0.00 66 1015.2
20260906150840 87 86 4.0 6.0 0.00 0.00 0.00 69 1015.1
20260906150335 87 45 3.0 5.0 0.00 0.00 0.00 69 1015.2
20260906145834 87 183 2.0 5.0 0.00 0.00 0.00 70 1014.8
20260906145333 86 72 3.0 3.0 0.00 0.00 0.00 71 1015.1
20260906144828 86 185 3.0 6.0 0.00 0.00 0.00 71 1015.2
20260906144323 86 40 2.0 5.0 0.00 0.00 0.00 72 1015.0
20260906143823 86 67 2.0 3.0 0.00 0.00 0.00 72 1015.0
20260906143319 85 18 1.0 5.0 0.00 0.00 0.00 74 1015.1
20260906142815 85 111 4.0 6.0 0.00 0.00 0.00 73 1015.1
20260906142310 85 58 3.0 3.0 0.00 0.00 0.00 74 1014.8
20260906141809 83 66 2.0 5.0 0.00 0.00 0.00 76 1015.1
20260906141304 84 55 2.0 5.0 0.00 0.00 0.00 75 1015.2
20260906140802 84 79 4.0 5.0 0.00 0.00 0.00 75 1015.1
20260906140257 84 129 3.0 5.0 0.00 0.00 0.00 76 1015.2
20260906135755 82 37 0.0 2.0 0.00 0.00 0.00 79 1015.1
20260906135250 82 69 2.0 2.0 0.00 0.00 0.00 79 1014.9
20260906134746 81 73 3.0 3.0 0.00 0.00 0.00 80 1014.9
20260906134241 82 41 2.0 3.0 0.00 0.00 0.00 80 1015.2
20260906133736 81 28 0.0 2.0 0.00 0.00 0.00 81 1015.0
20260906133232 81 55 2.0 3.0 0.00 0.00 0.00 81 1014.8
20260906132727 81 43 2.0 6.0 0.00 0.00 0.00 82 1015.1
20260906132222 81 24 0.0 1.0 0.00 0.00 0.00 83 1015.1
20260906131718 80 36 1.0 3.0 0.00 0.00 0.00 84 1014.9
20260906131213 80 49 3.0 6.0 0.00 0.00 0.00 83 1014.7
20260906130708 80 35 1.0 2.0 0.00 0.00 0.00 84 1014.8
20260906130203 79 26 0.0 2.0 0.00 0.00 0.00 85 1014.6
20260906125701 79 49 2.0 3.0 0.00 0.00 0.00 86 1014.6
20260906125200 78 28 0.0 2.0 0.00 0.00 0.00 87 1014.5
20260906124655 78 38 2.0 3.0 0.00 0.00 0.00 86 1014.6
20260906124150 78 44 2.0 5.0 0.00 0.00 0.00 87 1014.5
20260906123649 78 49 4.0 6.0 0.00 0.00 0.00 86 1014.5
20260906123145 78 32 1.0 2.0 0.00 0.00 0.00 87 1014.3
20260906122644 78 61 1.0 3.0 0.00 0.00 0.00 88 1014.5
20260906122140 78 36 1.0 3.0 0.00 0.00 0.00 88 1014.6
20260906121636 78 41 2.0 3.0 0.00 0.00 0.00 88 1014.6
20260906121132 78 23 1.0 1.0 0.00 0.00 0.00 88 1014.7
20260906120628 78 40 2.0 2.0 0.00 0.00 0.00 87 1014.2
20260906120125 78 27 1.0 5.0 0.00 0.00 0.00 87 1014.3
20260906115625 78 59 1.0 2.0 0.00 0.00 0.00 87 1014.2
20260906115120 78 39 1.0 5.0 0.00 0.00 0.00 87 1014.3
20260906114614 78 52 2.0 2.0 0.00 0.00 0.00 87 1014.3
20260906114109 78 20 1.0 2.0 0.00 0.00 0.00 87 1014.0
20260906113609 78 52 2.0 3.0 0.00 0.00 0.00 87 1014.2
20260906113104 79 35 1.0 3.0 0.00 0.00 0.00 86 1014.2
20260906112603 79 82 3.0 3.0 0.00 0.00 0.00 86 1014.0
20260906112100 78 96 3.0 3.0 0.00 0.00 0.00 87 1014.2
20260906111559 79 37 2.0 3.0 0.00 0.00 0.00 86 1014.0
20260906111055 79 37 2.0 2.0 0.00 0.00 0.00 86 1014.2
20260906110555 79 55 3.0 3.0 0.00 0.00 0.00 86 1013.9
20260906110054 79 34 2.0 3.0 0.00 0.00 0.00 86 1013.8
20260906105549 79 58 2.0 2.0 0.00 0.00 0.00 85 1013.8
20260906105045 79 90 3.0 3.0 0.00 0.00 0.00 85 1013.7
20260906104543 79 45 2.0 3.0 0.00 0.00 0.00 85 1013.7
20260906104038 79 41 2.0 3.0 0.00 0.00 0.00 85 1013.7
20260906103536 79 21 1.0 1.0 0.00 0.00 0.00 85 1013.6
20260906103032 79 28 1.0 2.0 0.00 0.00 0.00 85 1013.8
20260906102531 79 24 1.0 3.0 0.00 0.00 0.00 85 1013.7
20260906102027 79 62 2.0 3.0 0.00 0.00 0.00 85 1013.9
20260906101521 79 31 1.0 2.0 0.00 0.00 0.00 84 1013.7
20260906101016 80 33 1.0 3.0 0.00 0.00 0.00 84 1013.8
20260906100512 80 67 3.0 3.0 0.00 0.00 0.00 84 1013.5
20260906100006 80 2 1.0 2.0 0.00 0.00 0.00 83 1013.5
20260906095501 80 26 1.0 2.0 0.00 0.00 0.00 83 1013.6
20260906094956 80 15 0.0 3.0 0.00 0.00 0.00 83 1013.3
20260906094455 80 38 1.0 3.0 0.00 0.00 0.00 83 1013.1
20260906093952 80 22 1.0 2.0 0.00 0.00 0.00 84 1013.4
20260906093447 80 95 3.0 5.0 0.00 0.00 0.00 84 1013.4
20260906092942 80 52 2.0 3.0 0.00 0.00 0.00 83 1013.3
20260906092442 80 56 2.0 5.0 0.00 0.00 0.00 83 1013.3
20260906091937 80 52 1.0 3.0 0.00 0.00 0.00 83 1013.0
20260906091433 80 30 1.0 2.0 0.00 0.00 0.00 82 1013.0
20260906090929 80 65 3.0 3.0 0.00 0.00 0.00 83 1013.0
20260906090424 80 19 0.0 1.0 0.00 0.00 0.00 83 1013.1
20260906085918 80 31 1.0 1.0 0.00 0.00 0.00 83 1013.2
20260906085412 80 31 1.0 2.0 0.00 0.00 0.00 83 1013.1
20260906084911 80 27 1.0 1.0 0.00 0.00 0.00 83 1013.2
20260906084406 80 30 1.0 1.0 0.00 0.00 0.00 83 1013.3
20260906083905 80 33 1.0 2.0 0.00 0.00 0.00 82 1013.2
20260906083401 80 29 2.0 2.0 0.00 0.00 0.00 82 1012.9
20260906082900 81 79 3.0 3.0 0.00 0.00 0.00 82 1013.1
20260906082355 81 63 3.0 3.0 0.00 0.00 0.00 82 1013.2
20260906081852 81 24 1.0 3.0 0.00 0.00 0.00 81 1013.2
20260906081347 82 52 2.0 3.0 0.00 0.00 0.00 80 1013.3
20260906080843 82 40 2.0 2.0 0.00 0.00 0.00 80 1013.2
20260906080339 82 95 1.0 3.0 0.00 0.00 0.00 79 1013.3
20260906075838 82 174 2.0 5.0 0.00 0.00 0.00 80 1013.3
20260906075333 82 38 2.0 5.0 0.00 0.00 0.00 79 1013.3
20260906074829 82 6 1.0 3.0 0.00 0.00 0.00 79 1013.3
20260906074328 82 15 0.0 2.0 0.00 0.00 0.00 79 1013.2
20260906073827 82 71 3.0 3.0 0.00 0.00 0.00 80 1013.4
20260906073322 81 151 2.0 3.0 0.00 0.00 0.00 80 1013.4
20260906072819 82 67 2.0 2.0 0.00 0.00 0.00 79 1013.3
20260906072314 82 32 2.0 2.0 0.00 0.00 0.00 80 1013.4
20260906071809 82 108 3.0 3.0 0.00 0.00 0.00 79 1013.3
20260906071304 82 8 1.0 2.0 0.00 0.00 0.00 80 1013.4
20260906070801 82 18 1.0 2.0 0.00 0.00 0.00 80 1013.3
20260906070256 82 195 3.0 3.0 0.00 0.00 0.00 80 1013.3
20260906065756 82 27 1.0 2.0 0.00 0.00 0.00 80 1013.3
20260906065251 82 329 1.0 2.0 0.00 0.00 0.00 80 1013.3
20260906064747 82 228 3.0 3.0 0.00 0.00 0.00 79 1013.3
20260906064243 82 191 3.0 5.0 0.00 0.00 0.00 79 1013.3
20260906063738 82 62 2.0 3.0 0.00 0.00 0.00 79 1013.4
20260906063233 82 88 2.0 3.0 0.00 0.00 0.00 78 1013.3
20260906062728 82 62 2.0 3.0 0.00 0.00 0.00 79 1013.6
20260906062227 82 94 2.0 5.0 0.00 0.00 0.00 79 1013.4
20260906061723 82 193 3.0 7.0 0.00 0.00 0.00 78 1013.7
20260906061219 82 240 2.0 3.0 0.00 0.00 0.00 78 1013.6
20260906060715 82 32 3.0 7.0 0.00 0.00 0.00 78 1013.6
20260906060212 82 38 0.0 3.0 0.00 0.00 0.00 78 1013.7
20260906055707 82 112 5.0 6.0 0.00 0.00 0.00 77 1013.7
20260906055203 82 24 2.0 3.0 0.00 0.00 0.00 76 1013.8
20260906054658 83 25 0.0 3.0 0.00 0.00 0.00 76 1013.5
20260906054152 83 35 1.0 6.0 0.00 0.00 0.00 76 1013.7
20260906053649 83 61 3.0 5.0 0.00 0.00 0.00 75 1013.6
20260906053144 83 111 4.0 6.0 0.00 0.00 0.00 74 1013.6
20260906052639 83 68 2.0 3.0 0.00 0.00 0.00 74 1013.5
20260906052136 83 39 1.0 5.0 0.00 0.00 0.00 73 1013.6
20260906051632 83 92 4.0 5.0 0.00 0.00 0.00 73 1013.5
20260906051132 84 25 1.0 2.0 0.00 0.00 0.00 72 1013.4
20260906050627 84 39 3.0 6.0 0.00 0.00 0.00 72 1013.4
20260906050122 84 18 1.0 3.0 0.00 0.00 0.00 71 1013.5
20260906045620 84 128 2.0 3.0 0.00 0.00 0.00 71 1013.3
20260906045116 84 72 2.0 3.0 0.00 0.00 0.00 71 1013.4
20260906044612 84 29 0.0 2.0 0.00 0.00 0.00 72 1013.3
20260906044107 84 41 2.0 3.0 0.00 0.00 0.00 72 1013.3
20260906043603 84 36 1.0 5.0 0.00 0.00 0.00 72 1013.5
20260906043058 84 70 2.0 3.0 0.00 0.00 0.00 71 1013.4
20260906042557 85 102 4.0 5.0 0.00 0.00 0.00 70 1013.3
20260906042052 85 8 1.0 5.0 0.00 0.00 0.00 70 1013.3
20260906041548 85 124 5.0 6.0 0.00 0.00 0.00 70 1013.5
20260906041043 85 35 2.0 5.0 0.00 0.00 0.00 69 1013.6
20260906040538 85 41 1.0 6.0 0.00 0.00 0.00 69 1013.6
20260906040034 86 90 2.0 7.0 0.00 0.00 0.00 69 1013.6
20260906035529 86 114 2.0 5.0 0.00 0.00 0.00 68 1013.4
20260906035025 86 92 4.0 6.0 0.00 0.00 0.00 68 1013.4
20260906034524 86 94 4.0 6.0 0.00 0.00 0.00 68 1013.5
20260906034020 86 60 4.0 5.0 0.00 0.00 0.00 67 1013.7
20260906033514 86 52 3.0 5.0 0.00 0.00 0.00 67 1013.6
20260906033010 86 39 2.0 3.0 0.00 0.00 0.00 66 1013.2
20260906032506 86 85 1.0 3.0 0.00 0.00 0.00 66 1013.5
20260906032001 87 68 3.0 5.0 0.00 0.00 0.00 66 1013.3
20260906031456 87 64 3.0 6.0 0.00 0.00 0.00 66 1013.4
20260906030952 87 83 3.0 5.0 0.00 0.00 0.00 65 1013.5
20260906030446 87 355 2.0 3.0 0.00 0.00 0.00 65 1013.4
20260906025946 87 340 1.0 3.0 0.00 0.00 0.00 65 1013.5
20260906025440 87 92 2.0 2.0 0.00 0.00 0.00 65 1013.6
20260906024939 87 81 3.0 5.0 0.00 0.00 0.00 65 1013.6
20260906024438 87 166 5.0 7.0 0.00 0.00 0.00 65 1013.4
20260906023933 87 138 5.0 7.0 0.00 0.00 0.00 65 1013.2
20260906023430 87 157 3.0 5.0 0.00 0.00 0.00 64 1013.4
20260906022924 87 75 5.0 6.0 0.00 0.00 0.00 64 1013.2
20260906022420 87 46 2.0 8.0 0.00 0.00 0.00 64 1013.2
20260906021915 87 107 2.0 7.0 0.00 0.00 0.00 63 1013.0
20260906021415 87 101 3.0 7.0 0.00 0.00 0.00 63 1013.1
20260906020909 87 50 2.0 5.0 0.00 0.00 0.00 63 1013.0
20260906020403 88 135 5.0 7.0 0.00 0.00 0.00 62 1012.8
20260906015857 88 29 3.0 7.0 0.00 0.00 0.00 62 1012.7
20260906015356 88 126 4.0 8.0 0.00 0.00 0.00 61 1012.6
20260906014851 88 159 4.0 7.0 0.00 0.00 0.00 61 1012.6
20260906014351 89 50 3.0 3.0 0.00 0.00 0.00 60 1012.4
20260906013847 88 152 3.0 8.0 0.00 0.00 0.00 60 1012.5
20260906013342 89 118 4.0 10.0 0.00 0.00 0.00 60 1012.2
20260906012838 89 58 2.0 8.0 0.00 0.00 0.00 59 1012.2
20260906012333 89 67 6.0 7.0 0.00 0.00 0.00 59 1012.2
20260906011832 89 205 5.0 8.0 0.00 0.00 0.00 59 1012.0
20260906011327 89 87 7.0 10.0 0.00 0.00 0.00 59 1012.0
20260906010823 89 126 6.0 16.0 0.00 0.00 0.00 58 1012.1
20260906010319 90 101 5.0 8.0 0.00 0.00 0.00 57 1012.1
20260906005814 90 135 5.0 9.0 0.00 0.00 0.00 57 1012.1
20260906005313 90 179 11.0 14.0 0.00 0.00 0.00 57 1012.0
20260906004812 90 95 4.0 13.0 0.00 0.00 0.00 57 1012.0
20260906004312 91 99 3.0 10.0 0.00 0.00 0.00 55 1011.9
20260906003808 91 66 5.0 8.0 0.00 0.00 0.00 54 1011.9
20260906003303 92 93 7.0 11.0 0.00 0.00 0.00 54 1012.0
20260906002759 93 154 6.0 13.0 0.00 0.00 0.00 52 1011.9
20260906002258 93 133 6.0 14.0 0.00 0.00 0.00 51 1011.8
20260906001754 94 143 8.0 13.0 0.00 0.00 0.00 50 1011.9
20260906001248 95 137 8.0 14.0 0.00 0.00 0.00 48 1011.3
20260906000743 96 131 4.0 7.0 0.00 0.00 0.00 45 1011.4
20260906000241 97 132 9.0 13.0 0.00 0.00 0.00 44 1011.0
20260905235733 98 84 4.0 8.0 0.00 0.00 0.00 42 1011.2
20260905235233 98 52 6.0 9.0 0.00 0.00 0.00 42 1011.2
20260905234728 98 112 3.0 9.0 0.00 0.00 0.00 41 1011.1
20260905234224 98 70 5.0 9.0 0.00 0.00 0.00 41 1011.1
20260905233719 99 89 6.0 8.0 0.00 0.00 0.00 41 1011.1
20260905233218 98 1 0.0 2.0 0.00 0.00 0.00 40 1011.0
20260905232713 98 26 4.0 11.0 0.00 0.00 0.00 42 1010.9
20260905232209 98 12 3.0 6.0 0.00 0.00 0.00 41 1011.0
20260905231705 98 28 2.0 5.0 0.00 0.00 0.00 41 1011.0
20260905231200 99 27 3.0 8.0 0.00 0.00 0.00 41 1011.0
20260905230656 98 14 5.0 10.0 0.00 0.00 0.00 41 1011.0
20260905230154 98 94 2.0 8.0 0.00 0.00 0.00 41 1011.1
20260905225653 98 49 5.0 6.0 0.00 0.00 0.00 40 1010.9
20260905225148 99 104 8.0 11.0 0.00 0.00 0.00 41 1011.0
20260905224648 100 70 3.0 6.0 0.00 0.00 0.00 39 1010.8
20260905224148 100 54 3.0 3.0 0.00 0.00 0.00 38 1010.9
20260905223644 100 91 2.0 5.0 0.00 0.00 0.00 38 1010.8
20260905223141 99 225 5.0 6.0 0.00 0.00 0.00 39 1010.8
20260905222636 100 249 3.0 6.0 0.00 0.00 0.00 39 1010.9
20260905222131 100 124 3.0 8.0 0.00 0.00 0.00 39 1010.9
20260905221627 100 229 4.0 5.0 0.00 0.00 0.00 38 1010.9
20260905221123 100 172 4.0 7.0 0.00 0.00 0.00 38 1011.0
20260905220619 99 172 4.0 8.0 0.00 0.00 0.00 39 1011.3
20260905220115 98 29 2.0 6.0 0.00 0.00 0.00 40 1011.2
20260905215614 98 192 5.0 7.0 0.00 0.00 0.00 40 1011.0
20260905215110 98 24 1.0 5.0 0.00 0.00 0.00 41 1011.2
20260905214606 98 75 4.0 6.0 0.00 0.00 0.00 40 1011.3
20260905214106 98 5 0.0 3.0 0.00 0.00 0.00 40 1011.3
20260905213602 97 131 4.0 5.0 0.00 0.00 0.00 40 1011.2
20260905213056 98 122 6.0 7.0 0.00 0.00 0.00 40 1011.2
20260905212551 97 8 0.0 2.0 0.00 0.00 0.00 40 1011.3
20260905212050 97 356 0.0 3.0 0.00 0.00 0.00 41 1011.4
20260905211546 97 338 1.0 2.0 0.00 0.00 0.00 41 1011.4
20260905211042 97 15 1.0 5.0 0.00 0.00 0.00 41 1011.4
20260905210537 96 3 1.0 5.0 0.00 0.00 0.00 42 1011.6
20260905210032 98 33 5.0 7.0 0.00 0.00 0.00 41 1011.6
20260905205531 97 32 3.0 3.0 0.00 0.00 0.00 41 1011.9
20260905205031 96 327 5.0 6.0 0.00 0.00 0.00 42 1011.8
20260905204526 97 27 2.0 3.0 0.00 0.00 0.00 41 1011.9
20260905204020 97 33 1.0 3.0 0.00 0.00 0.00 42 1012.0
20260905203515 96 25 2.0 5.0 0.00 0.00 0.00 42 1012.1
20260905203010 98 20 1.0 3.0 0.00 0.00 0.00 42 1012.0
20260905202506 97 37 3.0 7.0 0.00 0.00 0.00 42 1012.4
20260905202001 99 16 2.0 5.0 0.00 0.00 0.00 40 1012.4
20260905201456 98 12 3.0 5.0 0.00 0.00 0.00 41 1012.4
20260905200955 98 86 5.0 6.0 0.00 0.00 0.00 42 1012.3
20260905200452 97 128 4.0 8.0 0.00 0.00 0.00 42 1012.5
20260905195950 97 33 2.0 10.0 0.00 0.00 0.00 43 1012.6
20260905195445 98 63 7.0 10.0 0.00 0.00 0.00 41 1012.5
20260905194941 98 352 0.0 5.0 0.00 0.00 0.00 42 1012.5
20260905194440 99 314 3.0 3.0 0.00 0.00 0.00 41 1012.7
20260905193935 97 88 5.0 7.0 0.00 0.00 0.00 41 1013.1
20260905193435 97 197 0.0 3.0 0.00 0.00 0.00 41 1013.0
20260905192930 96 198 4.0 7.0 0.00 0.00 0.00 41 1013.2
20260905192425 98 99 5.0 7.0 0.00 0.00 0.00 41 1013.2
20260905191921 96 26 3.0 3.0 0.00 0.00 0.00 42 1013.2